Theta_e
323 329 328 328 326 326 326 327 328 326 325 326 328 328 325 324 324 322 322 322 325 328 329 329 330 331 332 332 332 332 333 332 331 332 331 329 328 328 327 325 324 324 322 323
323 326 324 323 325 327 327 328 328 326 326 327 327 327 326 324 324 324 322 322 321 320 325 328 328 330 332 332 333 332 332 333 332 332 331 330 329 328 327 326 325 324 324 323
321 321 319 320 323 325 326 328 326 327 325 325 326 327 325 324 324 323 323 323 322 321 321 323 328 328 331 332 333 333 333 332 332 332 331 331 330 330 328 327 326 325 324 324
320 319 320 321 321 322 325 323 325 325 327 331 325 332 326 326 325 324 324 322 322 321 321 322 327 328 329 331 332 333 333 332 332 332 331 331 330 330 329 328 327 326 325 324
318 316 318 322 323 322 322 322 325 326 326 327 328 328 326 324 325 324 323 323 322 322 322 321 323 328 328 329 332 333 333 333 332 332 332 332 331 331 330 330 329 328 326 325
316 315 316 317 318 320 321 324 324 324 325 327 327 328 325 324 324 324 324 323 322 321 322 322 321 323 327 328 330 332 333 333 333 332 332 332 332 331 331 331 330 330 328 327
314 316 317 318 320 319 322 324 327 328 326 330 324 327 326 322 322 322 323 322 322 322 321 321 322 323 323 324 329 331 332 333 333 333 332 332 332 332 332 331 332 331 329 328
314 316 315 315 319 321 320 321 330 329 330 325 323 327 326 323 323 323 322 322 321 320 320 322 322 322 322 322 324 330 331 332 332 333 333 332 332 332 331 332 332 331 330 329
311 310 310 311 314 316 320 322 319 323 322 324 325 323 322 322 320 320 320 320 321 321 320 319 320 321 322 321 321 325 329 330 331 332 333 332 331 331 331 331 331 331 331 330
310 311 310 310 311 312 315 315 324 323 330 329 321 321 319 321 321 321 320 321 320 320 321 321 321 321 320 321 321 321 326 329 330 330 331 332 331 330 330 330 331 331 331 330
311 311 313 312 315 317 317 317 317 320 321 324 324 320 318 318 319 320 320 320 320 320 321 320 320 319 319 319 319 319 323 325 328 329 330 330 331 331 330 331 330 330 331 330
312 312 314 314 313 312 314 317 319 326 324 323 322 322 319 319 319 319 319 319 318 318 316 315 316 314 315 317 317 316 319 323 325 327 328 329 329 330 331 331 330 330 330 330
311 313 316 313 312 312 317 316 318 320 320 322 327 323 318 319 320 319 318 319 317 314 312 313 314 313 312 313 314 314 315 320 324 326 327 328 328 329 330 330 330 330 330 330
311 311 312 314 310 313 318 316 315 316 321 322 323 321 321 320 320 319 320 318 315 312 312 312 312 314 312 310 311 312 313 316 321 324 326 326 327 328 328 329 330 330 330 330
312 315 312 310 309 309 310 314 317 318 319 320 318 318 317 317 320 320 319 319 319 318 316 315 315 314 314 312 309 308 310 312 317 321 324 324 325 325 326 327 328 329 329 328
312 315 311 311 310 310 310 311 311 312 314 314 314 315 314 315 316 319 319 319 319 319 317 316 315 314 312 311 310 308 307 308 313 319 322 322 323 324 324 325 325 326 325 325
310 313 313 310 310 309 311 309 307 308 310 310 313 313 313 314 314 318 318 319 319 319 318 317 316 315 315 312 310 309 309 307 307 314 318 320 321 322 322 323 323 323 322 322
311 310 312 310 310 309 308 307 308 309 311 311 311 312 313 313 313 314 314 315 316 317 317 317 317 316 315 315 312 309 308 306 306 308 313 315 316 317 318 318 319 319 319 319
304 308 308 306 307 306 303 302 302 306 308 310 313 313 313 314 314 314 314 314 314 314 315 316 316 316 316 316 312 309 307 305 305 305 309 312 311 310 312 314 314 315 315 315
303 304 305 306 304 304 301 303 304 304 306 307 308 310 308 310 314 313 304 308 314 315 315 315 315 315 315 315 313 307 306 305 304 303 305 308 310 311 312 313 314 314 314 314
304 305 306 306 306 308 305 306 305 309 306 299 298 299 298 302 304 299 301 302 303 304 310 315 315 315 315 314 311 305 304 303 305 305 304 304 306 310 311 309 310 311 309 309
306 307 306 306 307 308 305 307 305 298 294 293 292 292 292 293 294 295 296 296 298 300 301 303 311 314 314 313 309 304 303 306 305 304 303 302 303 305 305 305 302 300 301 300
301 302 304 306 307 303 296 297 290 286 287 287 287 288 287 288 290 291 292 293 293 294 296 296 298 301 308 311 308 303 305 305 304 303 302 301 300 300 301 299 296 296 296 297
302 297 303 305 304 295 294 289 284 282 282 284 284 284 284 286 286 287 288 289 289 290 291 291 291 293 297 302 303 303 302 303 302 300 299 297 296 295 295 295 295 296 296 296
294 293 296 298 299 287 292 284 281 279 281 280 280 280 281 282 284 285 285 285 286 287 286 286 288 290 291 292 294 296 297 300 299 297 295 294 294 293 294 295 295 296 296 296
282 284 292 298 281 279 280 280 278 278 277 277 277 278 278 279 281 281 281 282 282 284 282 282 284 285 286 288 289 290 292 294 296 294 293 293 293 293 294 294 294 295 297 296
Wind_Speed
8 6 10 11 15 19 15 12 20 19 16 3 19 22 23 21 22 22 20 20 19 20 22 27 27 28 28 27 28 30 31 31 28 29 28 26 25 24 24 24 23 22 22 23
8 14 27 17 12 8 18 15 17 18 14 10 19 24 23 23 21 23 21 23 23 22 21 21 27 29 30 32 32 32 34 33 33 31 30 28 26 25 24 24 24 25 25 26
21 26 18 21 19 15 20 14 13 17 11 17 17 25 25 29 26 25 23 21 23 22 22 22 24 28 29 32 35 36 36 36 36 33 29 26 23 23 24 26 27 29 29 28
16 22 17 20 25 21 21 19 18 16 11 11 10 12 20 24 21 22 21 20 22 22 21 20 21 27 32 34 37 36 37 40 38 36 32 32 29 27 29 28 28 27 30 31
16 15 18 20 19 14 22 14 11 10 14 10 16 7 16 19 24 22 20 19 20 20 18 20 21 28 33 35 36 38 41 39 39 38 37 33 32 31 26 27 27 29 29 34
21 7 15 26 23 18 4 5 7 10 12 11 23 20 14 17 24 23 21 18 18 15 17 17 24 27 31 32 35 35 36 38 39 39 42 40 37 33 29 29 29 28 31 31
25 24 17 9 15 6 8 7 4 4 5 7 17 17 23 15 17 19 17 11 13 13 15 14 15 16 25 28 31 35 37 38 41 43 42 43 40 38 34 33 32 29 29 30
18 18 26 21 20 22 15 10 4 8 4 8 11 9 13 18 17 22 20 13 14 10 11 10 9 15 21 24 27 31 34 37 38 40 42 42 42 38 37 35 32 31 30 31
14 20 11 22 26 21 11 11 21 11 18 6 7 17 16 15 14 11 13 13 15 14 13 12 11 16 20 21 27 32 34 35 37 41 41 41 40 41 38 36 35 33 33 30
14 11 18 14 19 22 26 15 8 7 6 8 12 21 14 9 14 12 14 15 13 12 9 9 10 15 21 22 25 29 33 34 35 36 39 39 39 40 38 35 36 36 34 31
18 13 6 11 16 23 18 21 20 12 12 14 15 15 16 19 19 20 17 14 7 6 7 8 8 11 14 18 21 26 29 31 32 35 35 36 37 38 37 37 37 37 33 32
22 7 12 17 12 14 19 23 23 5 7 9 18 21 13 4 6 7 10 1 4 4 5 6 8 9 9 12 16 20 23 28 31 31 33 35 36 35 36 38 38 34 35 33
15 9 9 6 10 12 9 19 20 18 19 19 7 13 16 19 19 13 7 6 6 4 7 6 5 7 7 10 13 17 20 24 28 30 31 33 35 36 37 37 35 33 32 33
8 15 14 15 14 6 6 16 21 21 15 12 17 25 32 25 18 11 13 7 7 5 5 7 8 6 8 11 14 16 18 20 21 24 28 30 32 35 35 34 33 34 34 32
8 5 15 23 20 21 20 15 11 11 19 18 25 27 36 27 23 21 19 18 18 17 12 12 11 10 11 9 13 16 18 17 20 22 25 30 31 30 30 31 31 32 32 32
10 4 6 5 14 16 20 23 23 23 22 18 23 27 34 29 24 27 22 20 20 21 18 14 15 11 11 14 15 17 20 23 21 23 26 27 27 29 31 30 32 33 34 34
9 6 2 5 8 13 10 23 23 23 23 22 22 28 30 29 20 18 20 22 22 22 16 16 17 20 18 15 19 20 23 22 24 24 25 26 27 30 33 34 34 33 32 30
2 2 1 4 3 9 12 13 16 17 20 20 22 28 31 26 21 18 21 24 23 22 25 25 23 22 28 24 23 23 21 22 25 28 27 29 31 32 35 35 35 35 33 33
9 5 3 4 6 14 21 18 15 17 22 17 21 27 27 19 18 25 22 19 23 24 25 22 30 30 30 29 22 20 22 24 26 28 29 31 30 29 33 34 34 34 33 31
12 10 6 4 5 7 16 8 10 12 17 12 15 19 18 15 14 9 25 26 21 19 19 19 31 32 30 31 22 22 25 23 26 27 33 31 31 33 35 36 36 35 33 33
5 5 12 11 9 12 5 11 11 11 7 18 16 16 17 10 13 22 21 22 21 22 31 33 29 26 30 29 25 24 22 25 33 32 33 33 32 34 34 33 34 34 33 31
9 8 6 7 8 15 12 3 13 7 7 11 18 18 21 22 22 24 23 21 21 23 27 33 29 26 28 28 23 22 21 34 31 31 31 32 32 31 30 30 28 28 30 29
6 10 4 9 7 10 9 6 7 13 14 14 18 23 21 25 24 24 24 23 21 22 24 30 28 31 28 21 24 21 34 27 28 29 31 32 30 30 31 32 29 27 27 25
7 6 6 8 11 8 8 8 12 17 18 17 16 19 24 26 25 22 18 19 20 19 20 31 30 23 23 23 24 35 26 23 27 28 27 27 27 25 27 25 27 25 25 23
3 5 4 9 11 19 11 13 17 24 19 19 20 20 20 24 23 22 19 18 18 20 27 28 24 24 25 25 22 20 22 20 24 23 20 21 22 25 26 26 28 27 27 28
3 2 3 8 10 5 14 18 25 20 21 22 23 25 21 22 23 22 17 18 20 20 25 25 24 24 23 23 17 18 14 14 19 14 16 17 19 21 22 23 19 22 28 26
Wind_Direction
211 219 231 202 217 239 230 254 257 257 243 293 263 259 260 253 253 252 251 255 255 253 243 238 228 219 215 210 209 211 209 206 204 201 203 208 210 212 215 214 214 213 213 211
203 229 226 238 229 230 241 248 259 267 259 208 253 264 267 258 254 253 251 249 248 249 248 246 239 215 211 210 207 207 210 207 206 205 205 207 210 214 216 215 214 214 215 213
222 233 234 234 227 234 236 233 243 246 245 242 271 274 261 256 253 251 246 243 250 245 244 240 231 226 216 213 207 208 207 209 209 208 205 209 212 216 215 216 216 216 214 214
223 240 247 222 230 226 245 235 232 241 261 244 204 276 268 257 251 231 235 237 242 243 239 239 236 224 218 217 214 208 207 209 208 206 206 203 202 207 210 210 213 213 214 214
224 224 224 237 235 240 250 248 222 243 242 259 239 261 261 255 256 250 240 229 238 242 239 238 234 228 223 216 215 210 209 209 209 205 207 207 209 216 212 212 213 212 213 216
243 234 238 231 236 230 226 222 238 250 247 251 238 225 257 241 252 253 247 236 243 240 236 236 237 236 230 218 213 214 213 211 210 207 208 209 210 212 211 210 211 210 210 213
226 233 231 258 223 159 196 157 220 215 212 235 232 227 244 270 261 267 264 240 242 242 244 236 232 237 238 227 214 212 210 212 211 209 209 210 214 214 214 213 214 210 209 211
221 232 223 216 224 214 206 208 231 215 199 249 209 239 232 234 252 253 259 256 258 250 236 247 237 239 235 231 225 215 215 216 213 211 212 212 214 216 218 218 217 217 215 217
200 232 231 211 226 230 233 213 235 267 276 262 227 259 257 263 262 250 253 251 251 254 246 252 252 242 244 231 227 220 218 219 216 215 213 213 214 215 218 219 218 220 220 222
239 264 226 227 220 232 236 238 220 200 214 220 228 250 259 262 258 258 244 249 248 255 247 246 247 244 240 235 225 225 223 221 220 219 215 215 215 216 219 219 218 220 221 220
229 253 244 233 198 222 218 233 236 272 240 257 264 256 264 271 274 266 251 239 264 262 276 280 273 265 258 246 229 218 221 222 222 219 218 217 217 217 217 218 220 221 220 218
212 243 247 241 244 251 252 226 224 227 212 249 251 262 270 293 320 339 330 34 221 266 295 301 281 274 259 250 247 237 225 219 220 222 217 217 217 216 216 218 219 218 217 216
199 232 237 255 245 224 235 244 233 241 257 255 256 252 251 254 263 274 279 287 283 324 300 309 306 291 276 250 233 236 238 227 221 217 218 218 217 214 214 216 216 213 215 214
209 224 223 236 237 233 202 241 243 247 245 249 242 268 272 269 273 267 297 268 254 259 274 291 290 284 271 258 246 236 232 233 236 226 221 220 220 219 217 215 212 210 211 210
186 233 249 246 253 257 268 249 247 255 255 253 260 253 269 263 268 286 287 286 297 295 278 284 279 269 280 255 250 242 242 229 220 226 227 226 222 221 221 217 212 210 209 209
178 217 192 269 264 264 270 268 261 254 239 249 260 271 268 276 283 285 295 300 295 292 292 292 293 276 259 256 248 241 236 232 222 217 224 224 222 219 216 214 210 209 211 212
206 227 153 245 236 239 255 248 257 260 255 251 245 252 266 272 265 269 278 273 271 275 284 285 281 277 272 251 244 241 248 235 225 223 223 223 219 215 210 210 211 210 209 207
125 133 202 288 346 253 250 266 263 264 257 252 250 258 262 269 286 281 270 266 271 274 269 264 263 268 272 273 251 252 254 236 229 223 220 221 219 218 216 213 213 213 214 216
213 198 246 251 248 283 286 277 262 246 261 247 244 255 266 279 289 266 264 267 270 271 271 271 272 274 278 272 258 243 241 238 231 229 221 219 215 213 216 217 214 213 208 206
234 229 225 206 241 255 269 315 320 257 262 346 307 289 345 333 260 289 344 341 330 314 293 283 275 269 267 266 258 234 236 227 226 230 232 229 221 215 214 215 211 206 203 201
155 204 223 233 248 263 280 238 246 237 283 338 351 344 339 321 312 328 324 327 327 323 325 298 286 281 262 260 252 232 233 229 241 242 237 230 223 217 216 208 207 204 199 198
181 188 199 214 237 260 352 357 230 4 19 343 330 331 324 315 318 319 322 325 323 327 327 328 316 278 270 255 238 234 234 249 248 240 232 226 217 210 206 202 197 195 187 182
237 223 243 211 226 104 39 66 39 19 353 350 331 325 322 313 319 322 320 321 322 323 323 323 320 310 298 274 239 238 250 247 240 227 220 216 209 203 200 193 183 176 179 174
262 355 258 296 266 24 32 57 13 358 344 337 328 323 317 314 319 316 319 320 320 324 329 327 324 315 308 300 274 257 267 253 231 218 210 204 191 185 189 186 180 177 180 180
312 335 343 271 296 335 161 7 355 332 335 333 324 319 313 311 309 315 317 318 317 319 327 328 326 321 319 320 316 296 276 249 225 212 194 185 184 179 178 184 185 185 191 189
32 0 257 272 350 315 288 318 327 333 332 332 328 321 321 313 311 314 313 311 310 318 324 325 328 325 327 328 346 338 305 252 221 186 184 186 184 181 181 175 171 194 197 196